Torna al catalogo

STARLINK-32398

AttivoComunicazioniVLEO
NORAD 61624·PAYLOAD·🇺🇸 United States

Lanciato Oct 23, 2024 da Cape Canaveral Space Force Station

Loading…

Prossimi Passaggi (prossime 24 ore)

TLE

AggiornatoSource: CelesTrak SupGP

Epoca: Sep 15, 2026, 02:44 UTC

1 61624C 24191D   26258.11437500  .00012611  00000+0  45684-3 0  2588
2 61624  42.9996 164.7625 0001239 268.3964 180.5151 15.27566180    17

Traccia STARLINK-32398 in tempo reale con AllMySat

Download on the App Store